Weather History for Wakefield, VA

Change the Weather History Date:

Monday, February 4, 2013

  Actual Average (KJGG) Record (KJGG)
Temperature  
Mean Temperature 33 °F -  
Max Temperature 45 °F 49 °F 70 °F (1962)
Min Temperature 21 °F 28 °F 10 °F (1965)
Degree Days  
Heating Degree Days 32    
Moisture  
Dew Point 19 °F    
Average Humidity 55    
Maximum Humidity 85    
Minimum Humidity 33    
Precipitation  
Precipitation 0.00 in - - ()
Sea Level Pressure  
Sea Level Pressure 30.06 in    
Wind  
Wind Speed 2 mph (SSW)    
Max Wind Speed 12 mph    
Max Gust Speed -    
Visibility 10 miles    
Events      
Averages and records for this station are not official NWS values.
T = Trace of Precipitation, MM = Missing Value Source: NWS Daily Summary

Daily Weather History Graph

Daily Weather History Graph

Search for Another Location

Airport:

Trip Planner

Search our weather history database for the weather conditions in past years. The results will help you decide how hot, cold, wet, or windy it might be!

Date:

Astronomy

Feb. 04, 2013 Rise Set
Actual Time 7:07 AM EST 5:36 PM EST
Civil Twilight 6:40 AM EST 6:03 PM EST
Nautical Twilight 6:09 AM EST 6:34 PM EST
Astronomical Twilight 5:39 AM EST 7:05 PM EST
Moon 1:39 AM EST (2/4) 12:00 PM EST (2/4)
Length of Visible Light 11h 23m
Length of Day
10h 29m
Last Quarter, 37% of the Moon is Illuminated
Feb 4
Last Quarter
Feb 10
New
Feb 17
First Quarter
Feb 25
Full
Mar 4
Last Quarter

Hourly Weather History & Observations

Time (EST) Temp. Windchill Dew Point Humidity Pressure Visibility Wind Dir Wind Speed Gust Speed Precip Events Conditions
12:54 AM 30.0 °F - 21.0 °F 69% 29.99 in 10.0 mi Calm Calm - N/A   Clear
1:54 AM 28.9 °F - 19.0 °F 67% 30.00 in 10.0 mi Calm Calm - N/A   Clear
2:54 AM 25.0 °F - 19.0 °F 78% 30.02 in 10.0 mi Calm Calm - N/A   Clear
3:54 AM 24.1 °F - 19.0 °F 81% 30.04 in 10.0 mi Calm Calm - N/A   Clear
5:54 AM 21.9 °F - 17.1 °F 82% 30.08 in 10.0 mi Calm Calm - N/A   Clear
6:54 AM 21.0 °F - 17.1 °F 85% 30.10 in 10.0 mi Calm Calm - N/A   Clear
7:54 AM 25.0 °F - 19.0 °F 78% 30.13 in 10.0 mi Calm Calm - N/A   Clear
8:54 AM 28.9 °F - 21.9 °F 75% 30.15 in 10.0 mi Calm Calm - N/A   Clear
9:54 AM 33.1 °F - 18.0 °F 54% 30.15 in 10.0 mi Calm Calm - N/A   Clear
10:54 AM 35.1 °F - 16.0 °F 46% 30.15 in 10.0 mi Calm Calm - N/A   Clear
11:54 AM 37.0 °F 34.5 °F 16.0 °F 42% 30.12 in 10.0 mi Variable 3.5 mph - N/A   Clear
12:54 PM 39.9 °F 35.8 °F 15.1 °F 36% 30.09 in 10.0 mi WSW 5.8 mph - N/A   Clear
1:54 PM 42.1 °F 38.4 °F 17.1 °F 37% 30.07 in 10.0 mi Variable 5.8 mph - N/A   Clear
2:54 PM 44.1 °F 38.1 °F 17.1 °F 34% 30.05 in 10.0 mi WSW 11.5 mph - N/A   Clear
3:54 PM 45.0 °F 41.8 °F 17.1 °F 33% 30.05 in 10.0 mi Variable 5.8 mph - N/A   Clear
4:54 PM 44.1 °F 40.8 °F 19.0 °F 37% 30.03 in 10.0 mi SSW 5.8 mph - N/A   Clear
5:54 PM 43.0 °F 39.5 °F 19.9 °F 40% 30.01 in 10.0 mi SSW 5.8 mph - N/A   Partly Cloudy
6:54 PM 41.0 °F 39.0 °F 21.0 °F 45% 30.02 in 10.0 mi SSW 3.5 mph - N/A   Clear
7:54 PM 41.0 °F 38.0 °F 21.9 °F 47% 30.01 in 10.0 mi SSW 4.6 mph - N/A   Clear
8:54 PM 41.0 °F 37.1 °F 23.0 °F 49% 30.01 in 10.0 mi South 5.8 mph - N/A   Scattered Clouds
9:54 PM 41.0 °F 37.1 °F 24.1 °F 51% 30.01 in 10.0 mi SSW 5.8 mph - N/A   Clear
10:54 PM 39.9 °F 36.7 °F 24.1 °F 53% 30.00 in 10.0 mi SSW 4.6 mph - N/A   Clear
11:54 PM 41.0 °F 35.8 °F 24.1 °F 51% 30.00 in 10.0 mi SW 8.1 mph - N/A   Partly Cloudy